Flag for Canada Weather past 2 weeks in Quesnel, British Columbia, Canada

Now
66 °F

Partly sunny.


Feels Like: 66 °F
Forecast: 48 / 67 °F
Wind: 13 mph from South

Location: Quesnel Airport

Current Time: Aug 29, 2015 at 8:40:20 PM

Latest Report: Aug 29, 2015 at 8:00 PM


Visibility: 9 mi

Pressure: 29.40 "Hg

Humidity: 49%

Dew point: 46 °F

Location of QuesnelLocation

Historic Weather in Quesnel — Graph

°F

Quesnel temperature yesterday

Maximum temperature yesterday: 72 °F (at 1:01 PM)
Minimum temperature yesterday: 46 °F (at 6:00 AM)
Average temperature yesterday: 58 °F

Past Weeks' High & Low Weather Summary

 TemperatureHumidityPressure
High82 °F (Aug 18, 5:00 PM)100% (Aug 17, 3:00 AM)30.27 "Hg (Aug 17, 3:00 AM)
Low34 °F (Aug 22, 7:01 AM)18% (Aug 19, 5:00 PM)29.37 "Hg (Aug 29, 6:00 PM)
Average59 °F66%29.97 "Hg
* Reported Aug 14 7:00 PM — Aug 29 7:00 PM, Quesnel, Weather by CustomWeather, © 2015

Note: Actual official high and low records may vary slightly from our data, if they occured in-between our weather recording intervals... More about our weather records

Advertising

Quesnel weather history for previous 24 hours

 ConditionsComfort  
Time TempWeatherWind HumidityBarometerVisibility
7:00 PM
Sat, Aug 29
68 °FPassing clouds.9 mph53%29.37 "Hg9 mi
6:00 PM66 °FMostly cloudy.13 mph56%29.37 "Hg9 mi
5:00 PM64 °FPartly sunny.8 mph73%29.39 "Hg9 mi
4:00 PM61 °FSunny.6 mph88%29.40 "Hg9 mi
3:00 PM57 °FFog.5 mph100%29.39 "Hg4 mi
2:00 PM54 °FFog.No wind100%29.39 "Hg4 mi
1:51 PM52 °FFog.3 mph100%29.37 "Hg3 mi
1:00 PM50 °FLight rain. Fog.6 mph100%29.38 "Hg3 mi
12:57 PM50 °FLight rain. Fog.7 mph100%29.38 "Hg3 mi
12:00 PM52 °FRain. Fog.No wind100%29.44 "Hg3 mi
11:48 AM52 °FRain. Fog.2 mph100%29.45 "Hg5 mi
11:00 AM50 °FLight rain. Fog.No wind100%29.46 "Hg4 mi
10:53 AM50 °FLight rain. Fog.No wind100%29.45 "Hg5 mi
10:00 AM48 °FSunny.7 mph100%29.46 "Hg9 mi
9:00 AM46 °FSunny.6 mph100%29.50 "Hg9 mi
8:04 AM45 °FLight rain. Fog.No wind100%29.55 "Hg0 mi
8:00 AM45 °FFog.2 mph100%29.56 "Hg0 mi
7:00 AM45 °FFog.2 mph100%29.59 "Hg0 mi
6:00 AM45 °FFog.2 mph100%29.61 "Hg0 mi
5:00 AM41 °FFog.3 mph100%29.65 "Hg1 mi
4:57 AM41 °FFog.3 mph100%29.65 "Hg2 mi
4:00 AM43 °FClear.No wind100%29.69 "Hg7 mi
3:00 AM45 °FClear.No wind100%29.70 "Hg9 mi
2:00 AM45 °FClear.2 mph100%29.72 "Hg9 mi
1:00 AM46 °FClear.2 mph93%29.73 "Hg9 mi
12:00 AM50 °FClear.2 mph88%29.74 "Hg9 mi
11:00 PM
Fri, Aug 28
52 °FClear.No wind88%29.74 "Hg9 mi
10:00 PM55 °FClear.No wind77%29.75 "Hg9 mi
9:00 PM61 °FScattered clouds.2 mph63%29.72 "Hg9 mi
8:00 PM66 °FPartly sunny.6 mph49%29.69 "Hg9 mi
Weather by CustomWeather, © 2015

See weather overviewHow to use our weather pages